Regional Weather Roundup
Issued by NWS Upton, NY

Current Version | Previous Version | Text Only | Print | Product List | Glossary On
Versions: 1 2 3 4 5 6 7 8 9 10 11 12 13 14 15 16 17 18 19 20 21 22 23 24 25 26 27 28 29 30 31 32 33 34 35 36 37 38 39 40 41 42 43 44 45 46 47 48 49
000
ASUS41 KOKX 131704
RWROKX

REGIONAL WEATHER ROUNDUP
NATIONAL WEATHER SERVICE NEW YORK NY
1200 PM EST SAT FEB 13 2016

NOTE: "FAIR" INDICATES FEW OR NO CLOUDS BELOW 12,000 FEET WITH NO
SIGNIFICANT WEATHER AND/OR OBSTRUCTIONS TO VISIBILITY.

NYZ071-072-176-178-NJZ106-104-131800-
NEW YORK CITY METRO AREA


CITY           SKY/WX    TMP DP  RH WIND       PRES   REMARKS
CENTRAL PARK   PTSUNNY   20  -8  28 W10G28    30.06R WCI   9
LAGUARDIA APRT PTSUNNY   21  -3  35 W21G33    30.06R WCI   5
KENNEDY INTL   MOSUNNY   23 -10  23 NW28G37   30.06R WCI   6
NEWARK/LIBERTY PTSUNNY   22 -10  24 NW23G33   30.07R WCI   6
BRNX BOT. GARD   N/A     21  -8  27 W25       30.05S WCI   4
TETERBORO      PTSUNNY   20  -6  31 W16G32    30.06R WCI   6
$$

NYZ177-179-078>081-131800-
LONG ISLAND NEW YORK

CITY           SKY/WX    TMP DP  RH WIND       PRES   REMARKS
FARMINGDALE    MOSUNNY   22  -6  29 NW17G37   30.02R WCI   8
ISLIP          MOSUNNY   22  -3  33 NW24G39   29.98R WCI   5
SHIRLEY        MOSUNNY   22  -2  35 W20G35    29.98R WCI   7
RIVERHEAD        N/A     25  -6  26 NW20      29.94R WCI  11
WESTHAMPTON    PTSUNNY   21  -1  38 NW25G36   29.96R WCI   4
EAST HAMPTON   CLOUDY    23   2  40 W16G23    29.92S WCI   9
MONTAUK POINT    N/A     24   2  38 NW15G24   29.92S WCI  11
$$

NYZ052-065-067-131800-
HUDSON VALLEY

CITY           SKY/WX    TMP DP  RH WIND       PRES   REMARKS
WHITE PLAINS   MOSUNNY   17  -5  37 NW28G38   30.00R WCI  -2
NEWBURGH       MOSUNNY   14  -9  34 NW29G40   30.04R WCI  -7
MONTGOMERY     SUNNY     14 -12  30 NW23G36   30.04R WCI  -5
POUGHKEEPSIE   MOSUNNY   19 -11  26 NW22G35   30.03R WCI   2
ALBANY         MOSUNNY    8 -12  39 NW23G36   30.08R WCI -13
$$

NJZ001-105-106-008-010-013-015-019>022-104-131800-
NEW JERSEY

CITY           SKY/WX    TMP DP  RH WIND       PRES   REMARKS
NEWARK/LIBERTY PTSUNNY   22 -10  24 NW23G33   30.07R WCI   6
TETERBORO      PTSUNNY   20  -6  31 W16G32    30.06R WCI   6
CALDWELL       PTSUNNY   18 -10  28 NW12G31   30.08R WCI   5
MORRISTOWN     PTSUNNY   18  -6  35 NW12G32   30.09R WCI   5
SOMERVILLE     PTSUNNY   19  -4  36 NW21G29   30.08S WCI   3
SUSSEX         CLOUDY    15  -6  39 W10G28    30.06R WCI   2
ANDOVER          N/A     15  -3  44 N15G22    30.07R WCI   0
TRENTON        CLOUDY    20  -6  31 NW18G29   30.10R WCI   5
MILLVILLE      CLOUDY    21  -1  38 NW23G31   30.15R WCI   5
ATLANTIC CITY  CLOUDY    24  -3  30 NW23G32   30.11R WCI   9
WRIGHTSTOWN    PTSUNNY   22  -6  28 NW20G33   30.07R WCI   7
TOMS RIVER     CLOUDY    23  -8  25 NW24G36   30.08S WCI   7
BELMAR         PTSUNNY   23  -6  28 NW20G29   30.05R WCI   8
$$

PAZ047>061-062-071-131800-
EASTERN PENNSYLVANIA

CITY           SKY/WX    TMP DP  RH WIND       PRES   REMARKS
PHILADELPHIA   PTSUNNY   22   1  40 W22G35    30.16S WCI   6
ALLENTOWN      CLOUDY    18  -5  36 NW18G33   30.11R WCI   2
SCRANTON       CLOUDY     9 -10  42 NW26G37   30.10R WCI -13
$$

CTZ002-004>006-009-010-012-RIZ004-006-007-MAZ004-011-015-131800-
SOUTHERN NEW ENGLAND
 IN CT

CITY           SKY/WX    TMP DP  RH WIND       PRES   REMARKS
BRADLEY INTL   PTSUNNY   18  -2  41 NW21G31   29.94R WCI   1
HARTFORD       CLOUDY    20  -4  34 W22G29    29.96S WCI   3
DANBURY        SUNNY     16 -10  31 W14G29    30.00R WCI   2
WTRBRY/OXFORD  MOSUNNY   18  -9  29 NW17G30   29.92S WCI   2
BRIDGEPORT     MOSUNNY   22  -2  35 W22G36    29.98R WCI   6
MERIDEN        MOSUNNY   21  -5  31 NW16G24   29.95S WCI   7
NEW HAVEN      MOSUNNY   20   0  41 W12G30    29.97R WCI   8
CHESTER        FAIR      19   0  42 NW15G26   29.91S WCI   5
GROTON         PTSUNNY   21   3  45 NW17G30   29.91S WCI   7
WILLIMANTIC    MOSUNNY   20  -2  38 NW18G30   29.92S WCI   5

 IN RI

CITY           SKY/WX    TMP DP  RH WIND       PRES   REMARKS
PROVIDENCE     PTSUNNY   23  -2  33 W23G29    29.87S WCI   7
BLOCK ISLAND   MOSUNNY   25   3  39 NW17G26   29.87S WCI  11
WESTERLY       MOSUNNY   23  -3  32 W13G22    29.91R WCI  11

 IN MA

CITY           SKY/WX    TMP DP  RH WIND       PRES   REMARKS
BOSTON         PTSUNNY   22  -2  35 W18G29    29.84R WCI   7
WORCESTER      MOSUNNY   15  -6  39 W21G36    29.80R WCI  -2
WESTFIELD      PTSUNNY   14  -3  47 NW21G32   29.95R WCI  -4
PROVINCETOWN   CLOUDY    24  10  55 NW21G28   29.80S WCI   9
NANTUCKET      PTSUNNY   26  13  57 NW20G26   29.81S WCI  12
$$

ANZ330-335-338-340-345-350-353-355-131800-
COASTAL MARINE OBSERVATIONS


STATION/POSITION TIME  SKY/WX   TEMP    WIND        PRES    VSBY  WAVE
                                AIR SEA DIR/SP/G                  HT/PER
                 (UTC)          (F)     (DEG/KT/KT) (MB)    (MI)  (FT/S)
NY HARB ENTRANCE 1550            23 43  310/ 23/ 29 1016.1          4/ 5
4S FIRE IS       NOT AVBL
20S FIRE ISLAND  1550            24 41  310/ 23/ 31 1015.1          7/ 6
GREAT SOUTH BAY  NOT AVBL
23SW MTP         1650            24 44  300/ 25/ 31 1012.5          6/ 5
HUDSON CANYON    1550            27 48              1014.1         10/ 8
KINGS POINT      1600            20 35  350/ 25/ 30 1016.5
EXECUTION ROCKS  NOT AVBL
CENTRAL LI SOUND 1630            23     310/ 21/ 27   N/A           3/ 4
EASTERN LI SOUND 1600            25 40  310/ 21/ 29   N/A
ROBBINS REEF     1600            19     310/ 30/ 41 1016.4
$$


>>>>>>>>>>>>>>>>>>>>>>>>>>>> KEY <<<<<<<<<<<<<<<<<<<<<<<<<<<
>                                                          <
>     SKY/WX - SKY CONDITION/PRESENT WEATHER               <
>     TMP    - TEMPERATURE IN FAHRENHEIT                   <
>     DP     - DEWPOINT IN FAHRENHEIT                      <
>     RH     - RELATIVE HUMIDITY IN PERCENT                <
>     WIND   - DIRECTION AND SPEED IN MPH                  <
>     PRES   - MEAN SEA LEVEL PRESSURE IN INCHES OF HG     <
>     WCI    - WIND CHILL INDEX                            <
>     VSB    - VISIBILITY IN MILES                         <
>     HX     - HEAT INDEX                                  <
>     TC     - TEMPERATURE IN CELSIUS                      <
>     VRB    - VARIABLE WIND DIRECTION                     <
>                                                          <
>>>>>>>>>>>>>>>>>>>>>>>>>>>> KEY <<<<<<<<<<<<<<<<<<<<<<<<<<<





USA.gov is the U.S. government's official web portal to all federal, state and local government web resources and services.